Regional Weather Roundup
Issued by NWS Newport/Morehead, NC

Current Version | Previous Version | Text Only | Print | Product List | Glossary Off
Versions: 1 2 3 4 5 6 7 8 9 10 11 12 13 14 15 16 17 18 19 20 21 22 23 24 25 26 27 28 29 30 31 32 33 34 35 36 37 38 39 40 41 42 43 44 45 46 47 48 49 50

000
ASUS42 KMHX 190212
RWRMHX
WEATHER ROUNDUP FOR EASTERN NORTH CAROLINA
NATIONAL WEATHER SERVICE NEWPORT/MOREHEAD CITY NC
1000 PM EDT SAT APR 18 2015

NOTE: "FAIR" INDICATES FEW OR NO CLOUDS BELOW 12,000 FEET
WITH NO SIGNIFICANT WEATHER AND/OR OBSTRUCTIONS TO VISIBILITY

NCZ015>017-031-032-045>047-102-103-190300-
NORTH COAST

CITY           SKY/WX    TMP DP  RH WIND       PRES   REMARKS
EDENTON        PTCLDY    63  61  92 E6        30.01F
ELIZABETH CITY PTCLDY    61  58  90 CALM      30.02S
KITTY HAWK     PTCLDY    57  56  96 SE3       30.01S
MANTEO         MOCLDY    60  58  94 E5        30.03S

$$

NCZ045>047-081-094-103-104-190300-
CENTRAL COAST

CITY           SKY/WX    TMP DP  RH WIND       PRES   REMARKS
FRISCO         PTCLDY    60  60 100 NE7       30.01R
SWANQUARTER      N/A     68 N/A N/A NE2       29.97S

$$

NCZ095-097-098-100-101-190300-
SOUTHERN COAST

CITY           SKY/WX    TMP DP  RH WIND       PRES   REMARKS
BEAUFORT       MOCLDY    64  64 100 CALM      29.99S
CEDAR ISLAND     N/A     68 N/A N/A N1        30.03S
JACKSONVILLE   CLEAR     68  64  87 E3        29.99S
PINEY ISLAND   PTCLDY   N/A N/A N/A NE3       30.00R
WILMINGTON     MOCLDY    67  63  87 E5        29.99R


$$

NCZ011>013-027>030-043-044-078>080-089-090>093-098-190300-
COASTAL PLAIN

CITY           SKY/WX    TMP DP  RH WIND       PRES   REMARKS
AHOSKIE        MOCLDY    65  62  90 CALM      30.02S
CLINTON        MOCLDY    66  65  97 CALM      30.01R
ELIZABETHTOWN  CLOUDY    67  65  94 CALM      30.00R
GOLDSBORO      CLOUDY    70  64  83 E5        29.99R
GREENVILLE     LGT RAIN  64  64 100 SW3       30.01F
HAVELOCK       PTCLDY    66  63  90 CALM      30.00F
KENANSVILLE    PTCLDY    66  64  96 CALM      30.00S
KINSTON        NOT AVBL
NEW BERN       PTCLDY    66  63  90 CALM      30.00S
RICHLANDS      CLEAR     66  61  82 E3        30.00S
ROCKY MOUNT    PTCLDY    67  63  87 E5        30.01R
WASHINGTON     CLOUDY    65  64  97 CALM      30.01S
WHITEVILLE     CLOUDY    69  64  83 CALM      29.99R

$$

AMZ130-135-150-152-154-156-158-170-250-252-270-ANZ085-086-088-633-658-670-190300-
MARINE OBSERVATIONS

STATION/POSITION TIME  TEMP    WIND        PRES    WAVE   SWELL
                       AIR SEA DIR/SP/G            HT/PER HT/PER
                 (UTC) (F)     (DEG/KT/KT) (MB)    (FT/S) (FT/S)
CHESAPEAKE LIGHT 0200   55     150/  3/  4 1017.5
64 E VA BEACH    0150   57 54  320/  2/  4 1015.9    4/ 8   3/ 8
DUCK             0100   56 57  100/  3/  4 1015.6
2 E DUCK         0111      56                N/A     3/ 7   2/13
10 NE DUCK       NOT AVBL
OREGON INLET     0100   58 68   20/  7/  9 1016.3
HATTERAS CG      0106   69 69   30/  5/  6 1015.7
DIAMOND BUOY     0150   69 76   20/ 10/ 12 1015.6    4/ 9   5/ 9
CAPE LOOKOUT     0200   68     360/  2/  2 1015.4
BEAUFORT LAB     0106   67 62  330/  1/  3 1014.7
27 SE WRIGHTSVLE 0100   70 73  130/  6/  8   N/A
5 SE WRIGHTSVLE  0100   67 65   20/  4/  4 1014.9
225 S CAPE HAT   0150   72 75  160/  4/  6 1015.2    5/ 9   5/ 9
41 SE CHARLESTON 0150   73 75  130/  2/  4 1014.7    3/ 8   3/ 8

$$



USA.gov is the U.S. government's official web portal to all federal, state and local government web resources and services.